Погода в Ифе

Нигерия     7°28′47″N   4°33′42″E
темп.,
°C
ветер,
м/с
пор.,
м/с
влажн.,
%
обл.,
%
осадки,
мм/ч
давл.,
гПа
погр.,
м
24 сентября, пт
пт2401:00+22юз119997 0.0 101326
04:00+22ю119994 0.0 101221
07:00+22зюз1199100 0.1 101451
10:00+26ююв018581 0.3 1015403
13:00+27ю2375100 1.8 1012782
16:00+29ююз226550 0.0 10101055
19:00+24ююз128893 0.1 101251
22:00+22юз259712 0.3 1014144
25 сентября, сб
сб2501:00+21ю009931 2.0 101417
04:00+21з019939 1.1 101321
07:00+21зсз019961 1.1 101455
10:00+27зюз127830 0.0 1015724
13:00+31юз125592 0.0 10121670
16:00+28вюв117899 1.2 1010147
19:00+23ю1395100 3.8 101260
22:00+23ююв139698 1.0 101587
26 сентября, вс
вс2601:00+21ю139991 2.4 101486
04:00+21ююз1199100 0.0 101319
07:00+21юз119893 0.0 101445
10:00+26ююз237770 0.0 1015647
13:00+32ююз125337 0.0 10121778
16:00+28ююз367278 0.6 1010495
19:00+23ююз2596100 5.1 1013128
22:00+22ююз159963 0.4 1014257
27 сентября, пн
пн2701:00+22зюз1510095 0.4 1014239
04:00+21зсз149979 0.0 1012221
07:00+21з019958 0.0 101348
10:00+26ююз127958 0.0 1013493
13:00+31ююз225562 0.0 10111480
16:00+31юз225699 0.0 10081064
19:00+23ююз1392100 2.5 101062
22:00+22ююз119818 0.1 101221
28 сентября, вт
вт2801:00+22юз129921 0.4 101150
04:00+21юз1299100 0.0 101070
07:00+21ююз129943 0.0 101285
10:00+26ююз237981 0.0 1013739
13:00+31ююз225766 0.1 10091633
16:00+27ю238492 3.2 1008652
19:00+23юз1596100 4.8 1010110
22:00+22ююз1498100 0.1 1012143